Location: Bron Breck
(40.6655°N, 111.8083°W)
Time: 23:46:23
(UTC+00:00)

N. Korean satellite - Pass Details

Date: 03 March 2021
Orbit: 453 x 499 km, 97.2° (Epoch: 11 April)

Event Time Altitude Azimuth Distance (km) Brightness Sun altitude
Rises 13:16:52 0° 4° (N) 2,523 10.2 -8.5°
Reaches altitude 10° 13:18:59 10° 357° (N) 1,649 9.2 -8.1°
Maximum altitude 13:22:20 41° 286° (WNW) 710 6.9 -7.5°
Drops below altitude 10° 13:25:42 10° 215° (SW) 1,662 9.0 -6.8°
Sets 13:27:51 0° 208° (SSW) 2,545 10.0 -6.4°
